Regional Weather Roundup
Issued by NWS Charleston, WV

Home | Current Version | Previous Version | Graphics & Text | Print | Product List | Glossary On
Versions: 1 2 3 4 5 6 7 8 9 10 11 12 13 14 15 16 17 18 19 20 21 22 23 24 25 26 27 28 29 30 31 32 33 34 35 36 37 38 39 40 41 42 43 44 45 46 47 48 49 50
000
ASUS41 KRLX 022210
RWRRLX
West Virginia Regional Weather Roundup
National Weather Service Charleston WV
500 PM EST MON MAR 02 2015

Note: "fair" indicates few or no clouds below 12,000 feet with no
significant weather and/or obstructions to visibility.

WVZ003-022300-
Northern Panhandle of West Virginia

CITY           SKY/WX    TMP DP  RH WIND       PRES   REMARKS
WHEELING       SUNNY     31  14  49 NW10      30.39F
$$

WVZ009-022300-
Northwest West Virginia

CITY           SKY/WX    TMP DP  RH WIND       PRES   REMARKS
PARKERSBURG    MOSUNNY   34  14  43 NW6       30.44F
$$

WVZ006-022300-
Western West Virginia

CITY           SKY/WX    TMP DP  RH WIND       PRES   REMARKS
HUNTINGTON     SUNNY     37  18  46 N5        30.40F
$$

WVZ015-022300-
West Central West Virginia

CITY           SKY/WX    TMP DP  RH WIND       PRES   REMARKS
CHARLESTON     MOSUNNY   38  18  44 VRB5      30.39S
$$

WVZ022-031-022300-
North Central West Virginia

CITY           SKY/WX    TMP DP  RH WIND       PRES   REMARKS
CLARKSBURG     PTSUNNY   34  18  52 NW9       30.37S
MORGANTOWN     SUNNY     34  12  40 NW6       30.38S
$$

WVZ025-035-042-045-022300-
Southern West Virginia

CITY           SKY/WX    TMP DP  RH WIND       PRES   REMARKS
BECKLEY        SUNNY     36  13  38 W8        30.30R
LOGAN            N/A     39  18  41 NE6       30.31F
BLUEFIELD      SUNNY     39  17  41 VRB6      30.28R
LEWISBURG        N/A     39  14  35 NW6       30.28S
$$

WVZ047-022300-
Northern Mountains of West Virginia

CITY           SKY/WX    TMP DP  RH WIND       PRES   REMARKS
ELKINS         MOSUNNY   32  17  54 NW10      30.33R
$$

WVZ052-022300-
Eastern Panhandle of West Virginia

CITY           SKY/WX    TMP DP  RH WIND       PRES   REMARKS
MARTINSBURG    SUNNY     39  14  36 NW10G24   30.33R
PETERSBURG     SUNNY     38   9  29 NW7       30.34R
$$


USA.gov is the U.S. government's official web portal to all federal, state and local government web resources and services.